Location: Newark
(47.0028°N, 8.6117°E)
Time: 12:22:02
(UTC+00:00)

N. Korean satellite - Visible Passes

Search period start: 22 October 2019 00:00
Search period end: 01 November 2019 00:00
Orbit: 455 x 508 km, 97.2° (Epoch: 21 October)

Date Brightness Start Highest point End Pass type
(mag) Time Alt. Az. Time Alt. Az. Time Alt. Az.
22 Oct 10.4 17:45:42 10° WSW 17:46:36 11° W 17:47:30 10° WNW visible
23 Oct 7.9 05:05:58 10° NNE 05:09:29 46° E 05:13:01 10° S visible
23 Oct 9.5 17:18:23 10° SW 17:21:03 21° W 17:23:45 10° NW visible
24 Oct 9.3 04:41:03 10° NE 04:44:03 24° E 04:47:05 10° SSE visible
24 Oct 8.1 16:52:19 10° S 16:55:36 41° W 16:58:56 10° NNW visible
25 Oct 10.3 04:16:50 10° ENE 04:18:33 13° E 04:20:16 10° ESE visible
26 Oct 6.8 05:23:17 10° NNE 05:26:58 78° ESE 05:30:39 10° S visible
26 Oct 10.1 17:36:51 10° WSW 17:38:38 13° W 17:40:25 10° WNW visible
27 Oct 8.4 04:58:09 10° NNE 05:01:35 38° E 05:05:04 10° SSE visible
27 Oct 9.1 17:10:10 10° SSW 17:13:05 26° W 17:16:05 10° NW visible
28 Oct 9.6 04:33:22 10° NE 04:36:09 20° E 04:38:56 10° SE visible
28 Oct 7.5 16:44:17 10° S 16:47:40 52° W 16:51:07 10° NNW visible
29 Oct 10.5 04:09:46 10° ENE 04:10:35 11° E 04:11:25 10° ESE visible
30 Oct 7.2 05:15:24 10° NNE 05:19:04 63° E 05:22:45 10° S visible
30 Oct 9.9 17:28:20 10° SW 17:30:37 17° W 17:32:57 10° NW visible
31 Oct 8.8 04:50:20 10° NNE 04:53:40 31° E 04:57:00 10° SSE visible
31 Oct 8.7 17:01:58 10° SSW 17:05:07 32° W 17:08:20 10° NNW visible
